Total_Precipitation_Accumulation
0.21 0.22 0.31 0.46 0.45 0.31 0.12 0.03 0.02 0.03 0.04 0.05 0.07 0.09 0.08 0.09 0.14 0.30 0.30 0.22 0.21 0.25 0.37 0.66 1.00 1.20 1.19 1.10 0.99 0.89 0.83 0.77 0.81 0.84 0.86 0.85 0.80 0.79 0.79 0.83 0.86 0.95 1.08 1.04 1.02 0.95 0.93 0.86 0.74
0.23 0.34 0.54 0.65 0.50 0.31 0.12 0.04 0.03 0.03 0.05 0.05 0.08 0.09 0.09 0.10 0.11 0.19 0.29 0.29 0.26 0.29 0.42 0.65 0.99 1.25 1.28 1.21 1.12 1.05 1.05 0.98 0.94 0.97 1.00 0.98 0.97 0.93 0.90 0.93 0.95 0.97 1.03 0.94 0.87 0.75 0.69 0.60 0.56
0.38 0.54 0.75 0.71 0.52 0.29 0.12 0.04 0.04 0.05 0.06 0.08 0.10 0.11 0.13 0.16 0.15 0.21 0.32 0.39 0.42 0.44 0.57 0.82 1.11 1.32 1.40 1.31 1.28 1.25 1.23 1.21 1.16 1.10 1.10 1.12 1.10 1.05 0.99 0.96 0.96 0.93 0.94 0.83 0.76 0.62 0.51 0.46 0.42
0.61 0.80 0.85 0.71 0.50 0.25 0.11 0.07 0.07 0.08 0.08 0.09 0.12 0.19 0.19 0.18 0.22 0.27 0.40 0.49 0.54 0.61 0.74 1.02 1.27 1.42 1.50 1.40 1.37 1.38 1.39 1.41 1.37 1.25 1.18 1.20 1.21 1.11 0.99 0.94 0.88 0.80 0.79 0.76 0.67 0.57 0.49 0.43 0.41
0.90 1.02 0.86 0.66 0.43 0.22 0.10 0.09 0.10 0.11 0.12 0.13 0.16 0.23 0.27 0.26 0.28 0.40 0.58 0.68 0.72 0.84 0.97 1.20 1.51 1.70 1.73 1.63 1.57 1.55 1.52 1.52 1.54 1.44 1.30 1.32 1.35 1.29 1.10 0.94 0.83 0.74 0.72 0.67 0.63 0.55 0.50 0.45 0.42
1.18 1.18 0.91 0.58 0.35 0.22 0.11 0.10 0.12 0.14 0.15 0.17 0.23 0.29 0.40 0.39 0.42 0.53 0.76 0.89 0.94 1.06 1.21 1.44 1.76 1.88 1.96 1.88 1.80 1.77 1.72 1.62 1.59 1.60 1.53 1.47 1.49 1.45 1.24 0.97 0.85 0.81 0.78 0.72 0.68 0.62 0.54 0.48 0.42
1.18 1.18 0.86 0.45 0.30 0.25 0.14 0.12 0.16 0.17 0.17 0.21 0.26 0.37 0.51 0.57 0.68 0.77 0.97 1.17 1.27 1.38 1.55 1.69 1.88 2.01 2.21 2.07 1.90 1.91 1.88 1.75 1.69 1.68 1.63 1.52 1.49 1.43 1.25 1.03 0.94 0.92 0.89 0.82 0.75 0.69 0.61 0.54 0.46
1.18 1.28 0.86 0.43 0.28 0.28 0.19 0.17 0.20 0.22 0.22 0.23 0.33 0.45 0.56 0.69 0.87 1.08 1.30 1.41 1.61 1.72 1.89 1.96 2.07 2.16 2.34 2.31 2.06 1.89 1.79 1.73 1.75 1.68 1.49 1.26 1.26 1.32 1.26 1.00 0.94 0.95 0.92 0.91 0.84 0.73 0.66 0.56 0.45
1.21 1.29 0.83 0.46 0.34 0.30 0.26 0.28 0.26 0.25 0.33 0.37 0.43 0.50 0.63 0.83 1.14 1.42 1.68 1.79 1.96 2.13 2.19 2.24 2.24 2.22 2.33 2.43 2.26 2.16 2.01 1.89 1.78 1.69 1.44 1.30 1.34 1.30 1.21 0.98 0.84 0.92 0.93 0.99 1.02 0.91 0.77 0.57 0.44
1.25 1.06 0.62 0.40 0.37 0.36 0.32 0.34 0.35 0.41 0.47 0.53 0.62 0.70 0.86 1.17 1.55 1.75 1.86 1.95 2.07 2.24 2.31 2.42 2.37 2.34 2.42 2.45 2.41 2.43 2.28 2.10 1.93 1.72 1.58 1.49 1.39 1.38 1.25 1.16 0.95 0.98 1.02 1.03 1.08 0.97 0.87 0.67 0.49
0.91 0.76 0.53 0.42 0.39 0.40 0.41 0.39 0.41 0.50 0.55 0.53 0.62 0.82 1.14 1.53 1.91 1.97 2.11 2.23 2.25 2.41 2.48 2.57 2.52 2.56 2.54 2.50 2.40 2.39 2.32 2.31 2.18 1.98 1.74 1.65 1.57 1.50 1.49 1.33 1.19 1.15 1.08 1.10 1.01 0.91 0.82 0.69 0.57
0.66 0.52 0.49 0.47 0.42 0.45 0.48 0.48 0.52 0.52 0.53 0.53 0.61 0.81 1.19 1.62 1.93 2.02 2.26 2.41 2.53 2.64 2.76 2.78 2.74 2.79 2.75 2.64 2.45 2.28 2.15 2.15 2.17 2.03 1.97 1.85 1.72 1.59 1.48 1.32 1.19 1.15 1.05 1.02 0.95 0.86 0.77 0.68 0.62
0.53 0.43 0.43 0.50 0.50 0.48 0.48 0.49 0.57 0.51 0.50 0.57 0.67 0.93 1.23 1.63 1.99 2.17 2.43 2.61 2.75 2.92 2.97 3.04 3.00 2.90 2.81 2.79 2.68 2.34 2.09 1.92 1.99 2.02 2.02 1.96 1.76 1.58 1.52 1.38 1.33 1.22 1.10 1.07 1.02 0.92 0.83 0.75 0.71
0.43 0.41 0.49 0.57 0.62 0.52 0.52 0.53 0.58 0.55 0.53 0.65 0.78 0.98 1.21 1.60 2.09 2.33 2.63 2.89 2.88 3.11 3.23 3.35 3.25 3.12 2.87 2.71 2.71 2.51 2.22 2.02 1.95 1.94 1.95 2.07 1.96 1.78 1.72 1.52 1.47 1.39 1.30 1.23 1.18 1.09 1.06 0.96 0.87
0.48 0.57 0.62 0.66 0.70 0.58 0.61 0.70 0.62 0.56 0.53 0.63 0.77 0.97 1.20 1.53 1.97 2.30 2.57 2.78 3.01 3.21 3.43 3.52 3.50 3.37 3.07 2.82 2.78 2.65 2.45 2.27 2.11 1.83 1.81 1.96 2.07 2.04 1.99 1.74 1.60 1.52 1.50 1.50 1.44 1.32 1.23 1.16 1.05
0.78 0.92 0.86 0.61 0.67 0.65 0.75 0.81 0.56 0.55 0.58 0.60 0.69 0.90 1.12 1.34 1.71 2.06 2.44 2.68 2.93 3.27 3.47 3.56 3.58 3.53 3.33 3.03 2.93 2.86 2.65 2.48 2.34 2.10 1.93 1.88 1.99 2.15 2.21 1.93 1.69 1.58 1.59 1.57 1.50 1.42 1.30 1.14 1.09
1.11 0.92 0.70 0.54 0.56 0.70 0.71 0.75 0.61 0.57 0.61 0.57 0.60 0.77 1.06 1.26 1.48 1.74 2.13 2.51 2.71 3.08 3.37 3.64 3.62 3.53 3.46 3.34 3.24 3.16 3.03 2.80 2.60 2.31 2.09 2.06 2.07 2.20 2.37 2.09 1.82 1.73 1.72 1.64 1.60 1.52 1.47 1.29 1.15
0.90 0.58 0.49 0.51 0.53 0.65 0.62 0.55 0.60 0.62 0.62 0.58 0.62 0.72 0.94 1.19 1.26 1.48 1.82 2.30 2.53 2.88 3.22 3.44 3.74 3.71 3.76 3.77 3.65 3.53 3.44 3.21 2.93 2.56 2.27 2.20 2.16 2.22 2.44 2.32 2.08 2.00 1.92 1.82 1.69 1.58 1.58 1.55 1.45
0.72 0.60 0.46 0.37 0.43 0.60 0.57 0.49 0.57 0.57 0.62 0.62 0.64 0.71 0.79 0.99 1.15 1.39 1.71 2.10 2.42 2.64 2.97 3.14 3.39 3.64 3.75 3.72 3.49 3.32 3.22 3.31 3.22 2.88 2.57 2.54 2.41 2.29 2.39 2.41 2.33 2.19 2.06 1.93 1.83 1.74 1.67 1.68 1.74
0.88 0.82 0.57 0.41 0.36 0.56 0.59 0.53 0.55 0.58 0.62 0.63 0.65 0.65 0.72 0.83 1.01 1.27 1.66 1.87 2.10 2.35 2.55 2.86 2.99 3.34 3.46 3.36 3.37 3.28 3.27 3.32 3.35 3.22 2.96 2.82 2.72 2.54 2.43 2.39 2.38 2.31 2.22 2.12 2.07 1.99 1.94 1.82 1.79
0.93 0.79 0.66 0.59 0.52 0.62 0.73 0.70 0.57 0.57 0.56 0.51 0.53 0.54 0.64 0.73 0.84 1.06 1.42 1.71 1.84 2.10 2.37 2.50 2.65 2.93 3.26 3.38 3.58 3.73 3.74 3.55 3.38 3.26 3.21 3.06 3.00 2.87 2.62 2.49 2.49 2.44 2.34 2.22 2.18 2.16 2.17 2.17 2.09
0.97 0.59 0.65 0.71 0.93 0.94 0.78 0.99 0.68 0.56 0.51 0.50 0.52 0.51 0.60 0.70 0.78 0.92 1.06 1.33 1.56 1.75 2.15 2.45 2.66 2.85 3.06 3.47 3.55 3.49 3.39 3.17 2.94 3.00 3.11 3.14 3.11 3.08 2.88 2.77 2.72 2.61 2.46 2.37 2.39 2.36 2.35 2.38 2.37
0.88 0.61 0.72 0.83 1.03 1.06 0.74 0.87 0.70 0.49 0.51 0.52 0.54 0.56 0.67 0.80 0.85 0.90 0.97 1.12 1.30 1.48 1.87 2.24 2.53 2.87 3.12 3.29 3.40 3.49 3.31 3.06 3.00 3.00 3.02 2.98 2.95 2.98 2.97 2.90 2.95 2.85 2.70 2.57 2.57 2.58 2.58 2.54 2.48
0.95 1.00 1.10 1.18 1.56 1.58 0.69 0.70 0.70 0.61 0.63 0.59 0.57 0.60 0.73 0.85 0.89 0.88 0.95 1.09 1.25 1.37 1.59 1.98 2.26 2.45 2.77 3.09 3.17 3.23 3.24 3.20 3.12 2.95 2.89 2.92 2.92 2.92 2.92 2.94 2.95 2.93 2.90 2.80 2.70 2.65 2.64 2.59 2.52
1.40 2.01 2.68 2.64 2.32 1.27 0.48 0.57 0.69 0.64 0.67 0.69 0.70 0.72 0.77 0.81 0.84 0.84 0.93 1.07 1.26 1.42 1.54 1.67 1.88 2.03 2.26 2.57 2.76 2.83 2.98 3.09 2.97 2.84 2.70 2.68 2.70 2.71 2.76 2.79 2.85 2.87 2.84 2.89 2.87 2.81 2.69 2.63 2.59
1.44 1.73 2.09 1.76 1.12 0.65 0.46 0.58 0.68 0.64 0.66 0.68 0.71 0.71 0.71 0.77 0.82 0.84 0.85 0.94 1.09 1.29 1.48 1.53 1.63 1.75 1.94 2.12 2.29 2.50 2.68 2.88 2.90 2.81 2.62 2.53 2.48 2.46 2.62 2.67 2.60 2.61 2.69 2.77 2.83 2.79 2.65 2.56 2.48
1.33 1.34 1.21 1.52 0.97 0.66 0.56 0.52 0.51 0.46 0.48 0.57 0.63 0.64 0.69 0.78 0.80 0.81 0.82 0.85 0.98 1.11 1.30 1.41 1.50 1.61 1.70 1.85 2.01 2.21 2.35 2.47 2.56 2.66 2.60 2.53 2.45 2.40 2.36 2.40 2.40 2.32 2.36 2.49 2.63 2.63 2.54 2.46 2.36
1.09 1.12 1.39 1.95 1.57 0.96 0.58 0.46 0.61 0.59 0.56 0.60 0.64 0.70 0.79 0.82 0.78 0.76 0.80 0.86 0.96 1.01 1.15 1.32 1.42 1.50 1.53 1.62 1.72 1.85 2.03 2.22 2.31 2.44 2.40 2.35 2.37 2.39 2.29 2.16 2.14 2.11 2.11 2.19 2.30 2.32 2.28 2.28 2.20
1.04 1.32 1.57 1.61 1.31 1.15 0.85 0.72 0.74 0.70 0.66 0.68 0.70 0.75 0.83 0.86 0.84 0.83 0.86 0.94 1.03 1.03 1.10 1.28 1.38 1.50 1.55 1.56 1.59 1.63 1.70 1.84 2.00 2.17 2.26 2.18 2.23 2.29 2.27 2.11 2.04 2.00 1.94 1.95 2.01 1.98 2.02 2.06 2.05
0.91 1.04 1.31 1.76 1.33 0.97 0.93 0.90 0.73 0.69 0.66 0.66 0.69 0.73 0.77 0.81 0.83 0.89 0.95 0.95 0.98 1.08 1.16 1.25 1.34 1.46 1.57 1.62 1.61 1.63 1.64 1.67 1.77 1.87 2.06 2.10 2.16 2.16 2.22 2.16 2.04 1.95 1.87 1.82 1.85 1.83 1.79 1.80 1.82